Time,TemperatureF,DewpointF,PressureIn,WindDirection,WindDirectionDegrees,WindSpeedMPH,WindSpeedGustMPH,Humidity,HourlyPrecipIn,Conditions,Clouds,dailyrainin,SoftwareType,DateUTC
2013-01-24 07:33:00,5.0,-1.0,30.43,NW,315,0.0,1.0,77,0.00,,,0.00,,2013-01-24 12:33:00,
2013-01-24 07:43:00,5.0,-1.0,30.43,NW,315,0.0,1.0,77,0.00,,,0.00,,2013-01-24 12:43:00,
2013-01-24 07:53:00,5.0,-1.0,30.45,NNW,338,3.0,3.0,77,0.00,,,0.00,,2013-01-24 12:53:00,
2013-01-24 08:03:00,4.0,-2.0,30.45,NNW,338,5.0,5.0,77,0.00,,,0.00,,2013-01-24 13:03:00,
2013-01-24 08:13:00,4.0,-2.0,30.45,NNW,338,5.0,5.0,77,0.00,,,0.00,,2013-01-24 13:13:00,
2013-01-24 08:23:00,4.0,-2.0,30.46,North,0,0.0,3.0,77,0.00,,,0.00,,2013-01-24 13:23:00,
2013-01-24 08:33:00,4.0,-2.0,30.47,NNW,338,2.0,3.0,77,0.00,,,0.00,,2013-01-24 13:33:00,
2013-01-24 08:43:00,4.0,-2.0,30.47,NNW,338,2.0,3.0,77,0.00,,,0.00,,2013-01-24 13:43:00,
2013-01-24 08:53:00,4.0,-2.0,30.47,NNW,338,2.0,2.0,77,0.00,,,0.00,,2013-01-24 13:53:00,
2013-01-24 09:03:00,4.0,-2.0,30.48,NNW,338,2.0,3.0,77,0.00,,,0.00,,2013-01-24 14:03:00,
2013-01-24 09:12:00,4.0,-2.0,30.48,NNW,338,2.0,3.0,77,0.00,,,0.00,,2013-01-24 14:12:00,
2013-01-24 09:23:00,5.0,-1.0,30.49,North,0,2.0,2.0,77,0.00,,,0.00,,2013-01-24 14:23:00,
2013-01-24 09:33:00,6.0,0.0,30.50,North,0,6.0,7.0,77,0.00,,,0.00,,2013-01-24 14:33:00,
2013-01-24 09:43:00,6.0,0.0,30.50,North,0,6.0,7.0,77,0.00,,,0.00,,2013-01-24 14:43:00,
2013-01-24 09:53:00,7.0,1.0,30.50,NNW,338,2.0,2.0,77,0.00,,,0.00,,2013-01-24 14:53:00,
2013-01-24 10:04:00,9.0,3.0,30.51,NNE,23,2.0,3.0,77,0.00,,,0.00,,2013-01-24 15:04:00,
2013-01-24 10:12:00,9.0,3.0,30.51,NNE,23,2.0,3.0,77,0.00,,,0.00,,2013-01-24 15:12:00,
2013-01-24 10:23:00,10.0,4.0,30.52,NNE,23,0.0,0.0,76,0.00,,,0.00,,2013-01-24 15:23:00,
2013-01-24 10:33:00,10.0,4.0,30.52,NNE,23,0.0,0.0,76,0.00,,,0.00,,2013-01-24 15:33:00,
2013-01-24 10:43:00,11.0,5.0,30.53,NNW,338,6.0,7.0,75,0.00,,,0.00,,2013-01-24 15:43:00,
2013-01-24 10:53:00,12.0,5.0,30.53,North,0,0.0,1.0,73,0.00,,,0.00,,2013-01-24 15:53:00,
2013-01-24 11:04:00,13.0,6.0,30.55,NW,315,3.0,5.0,73,0.00,,,0.00,,2013-01-24 16:04:00,
2013-01-24 11:12:00,13.0,6.0,30.55,NW,315,3.0,5.0,73,0.00,,,0.00,,2013-01-24 16:12:00,
2013-01-24 11:23:00,15.0,7.0,30.56,North,0,5.0,5.0,71,0.00,,,0.00,,2013-01-24 16:23:00,
2013-01-24 11:33:00,16.0,8.0,30.56,North,0,1.0,3.0,69,0.00,,,0.00,,2013-01-24 16:33:00,
2013-01-24 11:43:00,16.0,8.0,30.56,North,0,1.0,3.0,69,0.00,,,0.00,,2013-01-24 16:43:00,
2013-01-24 12:03:00,17.0,7.0,30.55,NNW,338,2.0,5.0,65,0.00,,,0.00,,2013-01-24 17:03:00,
2013-01-24 12:12:00,17.0,7.0,30.55,NNW,338,2.0,5.0,65,0.00,,,0.00,,2013-01-24 17:12:00,
2013-01-24 12:22:00,17.0,7.0,30.55,NNW,338,2.0,5.0,65,0.00,,,0.00,,2013-01-24 17:22:00,
2013-01-24 12:32:00,20.0,10.0,30.55,NNW,338,0.0,0.0,65,0.02,,,0.02,,2013-01-24 17:32:00,
2013-01-24 12:42:00,20.0,10.0,30.55,NNW,338,0.0,0.0,65,0.02,,,0.02,,2013-01-24 17:42:00,
2013-01-24 12:52:00,20.0,9.0,30.54,West,270,0.0,0.0,63,0.04,,,0.02,,2013-01-24 17:52:00,
2013-01-24 13:03:00,20.0,9.0,30.54,West,270,0.0,0.0,62,0.04,,,0.04,,2013-01-24 18:03:00,
2013-01-24 13:12:00,19.0,8.0,30.54,West,270,0.0,0.0,62,0.02,,,0.04,,2013-01-24 18:12:00,
2013-01-24 13:22:00,19.0,8.0,30.54,West,270,0.0,0.0,62,0.02,,,0.04,,2013-01-24 18:22:00,
2013-01-24 13:33:00,20.0,9.0,30.54,WNW,293,0.0,0.0,61,0.02,,,0.04,,2013-01-24 18:33:00,
2013-01-24 13:42:00,20.0,9.0,30.54,WNW,293,0.0,0.0,61,0.02,,,0.04,,2013-01-24 18:42:00,
2013-01-24 13:53:00,20.0,8.0,30.53,NW,315,0.0,0.0,60,0.00,,,0.04,,2013-01-24 18:53:00,
2013-01-24 14:02:00,21.0,9.0,30.54,North,0,0.0,0.0,59,0.00,,,0.04,,2013-01-24 19:02:00,
2013-01-24 14:12:00,21.0,8.0,30.53,North,0,0.0,0.0,57,0.00,,,0.04,,2013-01-24 19:12:00,
2013-01-24 14:22:00,21.0,8.0,30.53,North,0,0.0,0.0,57,0.00,,,0.04,,2013-01-24 19:22:00,
2013-01-24 14:33:00,21.0,7.0,30.53,ESE,113,0.0,0.0,55,0.00,,,0.04,,2013-01-24 19:33:00,
2013-01-24 14:42:00,23.0,10.0,30.53,North,0,0.0,0.0,56,0.00,,,0.04,,2013-01-24 19:42:00,
2013-01-24 14:52:00,23.0,10.0,30.53,North,0,0.0,0.0,56,0.00,,,0.04,,2013-01-24 19:52:00,
2013-01-24 15:02:00,24.0,10.0,30.52,SSE,158,0.0,0.0,55,0.00,,,0.04,,2013-01-24 20:02:00,
2013-01-24 15:11:00,23.0,9.0,30.52,NW,315,0.0,1.0,54,0.00,,,0.04,,2013-01-24 20:11:00,
2013-01-24 15:22:00,23.0,9.0,30.52,NW,315,0.0,1.0,54,0.00,,,0.04,,2013-01-24 20:22:00,
2013-01-24 15:33:00,21.0,7.0,30.52,NW,315,0.0,0.0,53,0.00,,,0.04,,2013-01-24 20:33:00,
2013-01-24 15:42:00,20.0,6.0,30.52,SSE,158,0.0,0.0,54,0.00,,,0.04,,2013-01-24 20:42:00,
2013-01-24 15:52:00,20.0,6.0,30.52,SSE,158,0.0,0.0,54,0.00,,,0.04,,2013-01-24 20:52:00,
2013-01-24 16:03:00,18.0,4.0,30.52,WSW,248,0.0,0.0,54,0.00,,,0.04,,2013-01-24 21:03:00,
2013-01-24 16:12:00,17.0,3.0,30.53,West,270,0.0,0.0,54,0.00,,,0.04,,2013-01-24 21:12:00,
2013-01-24 16:22:00,17.0,3.0,30.53,West,270,0.0,0.0,54,0.00,,,0.04,,2013-01-24 21:22:00,
2013-01-24 16:33:00,18.0,5.0,30.54,SW,225,0.0,0.0,55,0.00,,,0.04,,2013-01-24 21:33:00,
2013-01-24 16:43:00,18.0,5.0,30.54,SW,225,0.0,0.0,55,0.00,,,0.04,,2013-01-24 21:43:00,
2013-01-24 16:52:00,19.0,6.0,30.54,SSE,158,0.0,0.0,56,0.00,,,0.04,,2013-01-24 21:52:00,
2013-01-24 17:03:00,18.0,5.0,30.53,SSW,203,0.0,0.0,55,0.00,,,0.04,,2013-01-24 22:03:00,
2013-01-24 17:12:00,16.0,3.0,30.54,South,180,0.0,0.0,56,0.00,,,0.04,,2013-01-24 22:12:00,
2013-01-24 17:22:00,16.0,3.0,30.54,South,180,0.0,0.0,56,0.00,,,0.04,,2013-01-24 22:22:00,
2013-01-24 17:33:00,15.0,2.0,30.53,South,180,0.0,0.0,56,0.00,,,0.04,,2013-01-24 22:33:00,
2013-01-24 17:42:00,15.0,2.0,30.53,South,180,0.0,0.0,56,0.00,,,0.04,,2013-01-24 22:42:00,
2013-01-24 17:52:00,14.0,1.0,30.53,South,180,0.0,0.0,56,0.00,,,0.04,,2013-01-24 22:52:00,
2013-01-24 18:03:00,13.0,1.0,30.52,SSE,158,0.0,0.0,57,0.00,,,0.04,,2013-01-24 23:03:00,
2013-01-24 18:12:00,13.0,1.0,30.52,SSE,158,0.0,0.0,57,0.00,,,0.04,,2013-01-24 23:12:00,
2013-01-24 18:22:00,12.0,0.0,30.53,SSE,158,0.0,0.0,58,0.00,,,0.04,,2013-01-24 23:22:00,
2013-01-24 18:32:00,11.0,0.0,30.53,SSE,158,0.0,0.0,59,0.00,,,0.04,,2013-01-24 23:32:00,
2013-01-24 18:42:00,11.0,0.0,30.53,SSE,158,0.0,0.0,59,0.00,,,0.04,,2013-01-24 23:42:00,
2013-01-24 18:52:00,11.0,0.0,30.52,SSE,158,0.0,0.0,59,0.00,,,0.04,,2013-01-24 23:52:00,
2013-01-24 19:02:00,11.0,0.0,30.53,SSE,158,0.0,0.0,60,0.00,,,0.04,,2013-01-25 00:02:00,
2013-01-24 19:12:00,11.0,0.0,30.53,SSE,158,0.0,0.0,60,0.00,,,0.04,,2013-01-25 00:12:00,
2013-01-24 19:22:00,10.0,-1.0,30.52,SSE,158,0.0,0.0,60,0.00,,,0.04,,2013-01-25 00:22:00,
2013-01-24 19:32:00,10.0,-1.0,30.52,SSE,158,0.0,0.0,61,0.00,,,0.04,,2013-01-25 00:32:00,
2013-01-24 19:42:00,10.0,-1.0,30.52,SSE,158,0.0,0.0,61,0.00,,,0.04,,2013-01-25 00:42:00,
2013-01-24 19:52:00,10.0,-1.0,30.51,SSE,158,0.0,0.0,61,0.00,,,0.04,,2013-01-25 00:52:00,
2013-01-24 20:02:00,10.0,0.0,30.51,SSE,158,0.0,0.0,62,0.00,,,0.04,,2013-01-25 01:02:00,
2013-01-24 20:12:00,10.0,0.0,30.50,SSE,158,0.0,0.0,62,0.00,,,0.04,,2013-01-25 01:12:00,
2013-01-24 20:22:00,10.0,0.0,30.50,SSE,158,0.0,0.0,62,0.00,,,0.04,,2013-01-25 01:22:00,
2013-01-24 20:32:00,10.0,0.0,30.50,SSE,158,0.0,0.0,62,0.00,,,0.04,,2013-01-25 01:32:00,
2013-01-24 20:42:00,10.0,0.0,30.50,SSE,158,0.0,0.0,62,0.00,,,0.04,,2013-01-25 01:42:00,
2013-01-24 20:52:00,10.0,0.0,30.49,SSE,158,0.0,0.0,63,0.00,,,0.04,,2013-01-25 01:52:00,
2013-01-24 21:02:00,10.0,0.0,30.48,SSE,158,0.0,0.0,63,0.00,,,0.04,,2013-01-25 02:02:00,
2013-01-24 21:11:00,10.0,0.0,30.48,SSE,158,0.0,0.0,63,0.00,,,0.04,,2013-01-25 02:11:00,
2013-01-24 21:22:00,10.0,0.0,30.47,SSE,158,0.0,0.0,64,0.00,,,0.04,,2013-01-25 02:22:00,
2013-01-24 21:32:00,10.0,0.0,30.47,SSE,158,0.0,0.0,64,0.00,,,0.04,,2013-01-25 02:32:00,
2013-01-24 21:42:00,10.0,0.0,30.47,SSE,158,0.0,0.0,64,0.00,,,0.04,,2013-01-25 02:42:00,
2013-01-24 21:52:00,10.0,0.0,30.47,SSE,158,0.0,0.0,64,0.00,,,0.04,,2013-01-25 02:52:00,
2013-01-24 22:02:00,10.0,0.0,30.47,SSE,158,0.0,0.0,64,0.00,,,0.04,,2013-01-25 03:02:00,
2013-01-24 22:12:00,10.0,1.0,30.47,SE,135,0.0,0.0,65,0.00,,,0.04,,2013-01-25 03:12:00,
2013-01-24 22:22:00,10.0,1.0,30.47,SE,135,0.0,0.0,65,0.00,,,0.04,,2013-01-25 03:22:00,
2013-01-24 22:33:00,10.0,1.0,30.47,South,180,0.0,0.0,65,0.00,,,0.04,,2013-01-25 03:33:00,
2013-01-24 22:42:00,10.0,1.0,30.47,South,180,0.0,0.0,65,0.00,,,0.04,,2013-01-25 03:42:00,
2013-01-24 22:52:00,10.0,1.0,30.47,SSE,158,0.0,0.0,65,0.00,,,0.04,,2013-01-25 03:52:00,
2013-01-24 23:02:00,10.0,1.0,30.47,SSE,158,0.0,0.0,65,0.00,,,0.04,,2013-01-25 04:02:00,
2013-01-24 23:12:00,10.0,1.0,30.46,SSE,158,0.0,0.0,66,0.00,,,0.04,,2013-01-25 04:12:00,
2013-01-24 23:22:00,10.0,1.0,30.46,SSE,158,0.0,0.0,66,0.00,,,0.04,,2013-01-25 04:22:00,
2013-01-24 23:32:00,10.0,1.0,30.46,SSE,158,0.0,0.0,66,0.00,,,0.04,,2013-01-25 04:32:00,
2013-01-24 23:42:00,10.0,1.0,30.46,SSE,158,0.0,0.0,66,0.00,,,0.04,,2013-01-25 04:42:00,
2013-01-24 23:51:00,10.0,1.0,30.46,SSE,158,0.0,0.0,66,0.00,,,0.04,,2013-01-25 04:51:00,